Back to catalog

THORAD AGENA D DEB

AliveSSO
NORAD 4998·DEBRIS·🇺🇸 United States

Launched Apr 8, 1970 from Vandenberg Space Force Base

Loading…

Next Passes (next 24 hours)

TLE

FreshSource: Space-Track

Epoch: Sep 14, 2026, 10:38 UTC

1 04998U 70025HU  26257.44315520 -.00000031  00000-0  25225-4 0  9995
2 04998 100.1966 252.3754 0009048 218.0954 298.4995 13.53090051785310

Track THORAD AGENA D DEB in real time with AllMySat

Download on the App Store